Regional Weather Roundup
Issued by NWS

Home | Current Version | Previous Version | Graphics & Text | Print | Product List | Glossary On
Versions: 1 2 3 4 5 6 7 8 9 10 11 12 13 14 15 16 17 18 19 20 21 22 23 24 25 26 27 28 29 30 31 32 33 34 35 36 37 38 39 40 41 42 43 44 45 46 47 48 49 50
928
ASUS45 KCYS 240910
RWRWY

WYOMING REGIONAL WEATHER ROUNDUP
NATIONAL WEATHER SERVICE CHEYENNE WY
300 AM MDT THU MAY 24 2018

NOTE:  "FAIR" INDICATES FEW OR NO CLOUDS BELOW 12,000 FEET
WITH NO SIGNIFICANT WEATHER AND/OR OBSTRUCTIONS TO VISIBILITY.

WYZ001-241000-
YELLOWSTONE NATIONAL PARK

CITY           SKY/WX    TMP DP  RH WIND       PRES   REMARKS
LK YELLOWSTONE   N/A     36  35  96 CALM      30.18R
W YELLOWSTONE  NOT AVBL

$$
WYZ002>013-054>058-071-098>099-241000-
NORTHERN WYOMING

CITY           SKY/WX    TMP DP  RH WIND       PRES   REMARKS
JACKSON        CLOUDY    43  42  97 SW7       30.13R
CODY           FAIR      58  42  55 NW7G16    29.98R
GREYBULL       CLOUDY    57  53  86 S5        29.93S
WORLAND        MOCLDY    51  50  96 S7        29.94S
SHERIDAN       MOCLDY    52  50  93 SW7       29.92R
BUFFALO        FAIR      53  47  79 NW6       29.97R
GILLETTE       FAIR      48  45  89 S9        29.93R
NEWCASTLE      FAIR      54  43  66 SE15      29.98S

$$
WYZ014>020-022>026-101>103-241000-
CENTRAL WYOMING

CITY           SKY/WX    TMP DP  RH WIND       PRES   REMARKS
BIG PINEY      FAIR      39  38  96 NW6       30.16S WCI  35
PINEDALE       FAIR      43  41  93 NW3       30.16S
DUBOIS         FAIR      45  37  76 NW15      30.09F
LANDER         FAIR      50  42  74 SE7       30.02S
RIVERTON       FAIR      50  43  77 SW8       30.03S
CASPER         FAIR      50  41  71 SW10      30.02R
DOUGLAS        FAIR      47  43  86 SE6       30.03R

$$
WYZ021-027>030-104>119-241000-
SOUTHERN WYOMING

CITY           SKY/WX    TMP DP  RH WIND       PRES   REMARKS
EVANSTON       FAIR      47  39  74 S6        30.17R
KEMMERER       FAIR      41  36  81 CALM      30.18R
FORT BRIDGER   FAIR      45  37  73 W7        30.20R
ROCK SPRINGS   FAIR      45  37  73 W7        30.15R
DIXON          FAIR      43  34  69 E5        30.19F
RAWLINS        FAIR      48  35  60 SW6       30.15R
SARATOGA       FAIR      43  32  65 S12       30.18S
LARAMIE        FAIR      40  33  76 S6        30.17S
CHEYENNE       FAIR      49  40  71 W9        30.12R
TORRINGTON     FAIR      50  48  93 CALM      30.02S
PINE BLUFFS    FAIR      45  43  93 W3        30.07F

$$




USA.gov is the U.S. government's official web portal to all federal, state and local government web resources and services.